CX5ACA-13 Weather Reports


time (UTC)temp
C
wind
direction
speed
KPH
gust
KPH
rain 1hr
cm
rain 24hr
cm
rain mn
cm
humidity
%
barometer
mb
20260508115751 11 300 8.0 11.3 0.00 0.89 0.89 93 999.6
20260508115249 11 345 9.7 12.9 0.00 0.89 0.89 94 999.4
20260508114745 11 283 3.2 3.2 0.13 0.89 0.89 96 999.4
20260508114242 11 101 6.4 11.3 0.30 0.89 0.89 95 999.6
20260508113738 11 212 4.8 6.4 0.18 0.86 0.86 94 999.7
20260508113237 11 216 3.2 4.8 0.00 0.84 0.84 94 999.4
20260508112733 11 11 4.8 4.8 0.00 0.84 0.84 94 999.6
20260508112230 11 333 3.2 3.2 0.00 0.84 0.84 94 999.5
20260508111726 11 194 8.0 9.7 0.00 0.84 0.84 94 999.3
20260508111224 11 296 9.7 12.9 0.00 0.84 0.84 94 999.1
20260508110721 11 223 4.8 6.4 0.00 0.84 0.84 94 999.1
20260508110218 11 284 8.0 12.9 0.00 0.84 0.84 95 999.1
20260508105717 11 307 11.3 12.9 0.00 0.84 0.84 94 998.9
20260508105215 11 246 6.4 11.3 0.00 0.84 0.84 94 998.9
20260508104712 11 65 4.8 9.7 0.00 0.84 0.84 95 998.7
20260508104209 11 290 8.0 12.9 0.13 0.84 0.84 96 998.7
20260508103706 10 235 3.2 4.8 0.13 0.84 0.84 96 998.6
20260508103203 11 289 6.4 9.7 0.00 0.81 0.81 96 998.6
20260508102700 11 261 6.4 9.7 0.18 0.81 0.81 96 998.4
20260508102158 11 256 6.4 12.9 0.18 0.81 0.81 95 998.4
20260508101655 11 177 3.2 4.8 0.00 0.79 0.79 96 998.2
20260508101153 11 334 11.3 24.1 0.13 0.79 0.79 95 998.3
20260508100650 11 336 12.9 16.1 0.13 0.79 0.79 94 998.3
20260508100148 11 358 19.3 27.4 0.00 0.76 0.76 93 998.0
20260508095644 11 310 9.7 17.7 0.00 0.76 0.76 93 998.1
20260508095142 11 295 4.8 9.7 0.00 0.76 0.76 93 997.8
20260508094638 11 311 8.0 11.3 0.00 0.76 0.76 93 997.7
20260508094135 11 217 20.9 25.7 0.18 0.76 0.76 93 997.9
20260508093632 11 341 4.8 6.4 0.18 0.76 0.76 93 997.6
20260508093130 11 322 8.0 12.9 0.00 0.74 0.74 93 997.6
20260508092627 11 312 6.4 12.9 0.00 0.74 0.74 94 997.5
20260508092126 11 256 6.4 6.4 0.00 0.74 0.74 94 997.7
20260508091622 11 124 4.8 11.3 0.00 0.74 0.74 93 997.6
20260508091119 11 287 3.2 9.7 0.00 0.74 0.74 92 997.5
20260508090617 11 285 4.8 9.7 0.00 0.74 0.74 92 997.6
20260508090114 12 203 6.4 11.3 0.00 0.74 0.74 91 997.5
20260508085610 12 336 4.8 6.4 0.00 0.74 0.74 91 997.5
20260508085108 12 297 12.9 16.1 0.00 0.74 0.74 91 997.5
20260508084604 12 216 6.4 12.9 0.00 0.74 0.74 91 997.5
20260508084102 11 237 16.1 22.5 0.00 0.74 0.74 91 997.2
20260508083559 12 235 9.7 12.9 0.00 0.74 0.74 92 997.2
20260508083056 12 231 6.4 11.3 0.00 0.74 0.74 92 997.4
20260508082551 12 307 9.7 11.3 0.00 0.74 0.74 91 997.1
20260508082049 12 320 4.8 6.4 0.00 0.74 0.74 91 997.1
20260508081546 12 296 6.4 11.3 0.00 0.74 0.74 91 996.9
20260508081042 12 329 8.0 9.7 0.00 0.74 0.74 92 996.9
20260508080540 12 316 9.7 14.5 0.00 0.74 0.74 93 996.9
20260508080037 12 155 3.2 4.8 0.00 0.74 0.74 93 996.9
20260508075533 12 321 8.0 11.3 0.00 0.74 0.74 92 996.7
20260508075031 12 308 4.8 9.7 0.00 0.74 0.74 92 996.8
20260508074529 12 312 9.7 14.5 0.00 0.74 0.74 92 996.7
20260508074025 12 230 4.8 6.4 0.00 0.74 0.74 92 996.8
20260508073523 12 270 14.5 16.1 0.00 0.74 0.74 92 997.0
20260508073021 12 298 11.3 16.1 0.00 0.74 0.74 93 997.1
20260508072516 12 266 8.0 14.5 0.00 0.74 0.74 94 997.0
20260508072013 12 302 16.1 25.7 0.00 0.74 0.74 94 997.0
20260508071511 12 332 9.7 16.1 0.00 0.74 0.74 93 997.0
20260508071008 12 259 3.2 6.4 0.00 0.74 0.74 94 997.0
20260508070506 12 346 8.0 12.9 0.00 0.74 0.74 95 997.1
20260508070005 12 312 6.4 6.4 0.13 0.74 0.74 95 997.1
20260508065502 12 291 4.8 6.4 0.43 0.74 0.74 96 997.2
20260508065000 12 152 4.8 6.4 0.30 0.71 0.71 96 997.1
20260508064457 12 113 3.2 4.8 0.30 0.66 0.66 95 997.2
20260508063954 13 328 8.0 11.3 0.30 0.66 0.66 95 997.1
20260508063451 13 300 3.2 3.2 0.00 0.61 0.61 95 997.0
20260508062949 13 328 9.7 16.1 0.00 0.61 0.61 94 997.2
20260508062447 13 271 4.8 4.8 0.00 0.61 0.61 96 997.1
20260508061943 13 286 6.4 9.7 0.18 0.61 0.61 96 997.3
20260508061442 13 313 11.3 14.5 0.18 0.61 0.61 97 996.9
20260508060937 13 283 8.0 11.3 0.30 0.58 0.58 97 997.0
20260508060435 13 279 4.8 6.4 0.61 0.58 0.58 97 996.9
20260508055931 13 348 6.4 11.3 0.48 0.53 0.53 97 997.0
20260508055428 13 232 6.4 9.7 0.43 0.46 0.46 97 996.8
20260508054924 13 343 11.3 16.1 0.61 0.43 0.43 97 996.7
20260508054422 13 271 9.7 12.9 0.43 0.41 0.41 97 996.9
20260508053918 13 243 3.2 4.8 1.07 0.33 0.33 97 997.0
20260508053415 13 309 3.2 4.8 1.07 0.30 0.30 97 997.1
20260508052913 13 301 6.4 9.7 0.30 0.15 0.15 97 997.3
20260508052411 13 10 6.4 6.4 0.30 0.13 0.13 97 997.1
20260508051906 13 341 4.8 4.8 0.30 0.10 0.10 96 997.1
20260508051402 13 311 8.0 11.3 0.30 0.08 0.08 96 997.4
20260508050858 13 332 4.8 11.3 0.30 0.05 0.05 95 997.2
20260508050356 14 340 9.7 12.9 0.13 0.03 0.03 94 997.1
20260508045851 14 59 6.4 9.7 0.00 0.00 0.00 92 997.3
20260508045350 14 324 3.2 9.7 0.00 0.00 0.00 90 997.3
20260508044847 15 328 8.0 11.3 0.00 0.00 0.00 89 997.2
20260508044343 15 232 8.0 12.9 0.00 0.00 0.00 89 997.3
20260508043839 15 326 8.0 12.9 0.00 0.00 0.00 88 997.3
20260508043337 15 345 6.4 9.7 0.00 0.00 0.00 88 997.4
20260508042833 15 149 3.2 6.4 0.00 0.00 0.00 88 997.4
20260508042331 15 301 4.8 4.8 0.00 0.00 0.00 88 997.2
20260508041827 15 139 3.2 4.8 0.00 0.00 0.00 87 997.3
20260508041324 15 314 17.7 29.0 0.00 0.00 0.00 87 997.2
20260508040820 15 198 3.2 4.8 0.00 0.00 0.00 87 997.2
20260508040318 15 329 14.5 22.5 0.00 0.00 0.00 87 997.4
20260508035815 15 347 14.5 14.5 0.00 0.00 0.00 87 997.1
20260508035312 15 241 8.0 9.7 0.00 0.00 0.00 87 997.6
20260508034809 15 0 12.9 16.1 0.00 0.00 0.00 87 997.5
20260508034306 15 305 9.7 16.1 0.00 0.00 0.00 87 997.4
20260508033803 15 118 1.6 1.6 0.00 0.00 0.00 87 997.3
20260508033301 15 5 4.8 6.4 0.00 0.00 0.00 87 997.2
20260508032758 15 315 11.3 14.5 0.00 0.00 0.00 85 997.4
20260508032255 15 311 6.4 9.7 0.00 0.00 0.00 85 997.4
20260508031752 15 316 14.5 22.5 0.00 0.00 0.00 85 997.2
20260508031248 15 339 8.0 12.9 0.00 0.00 0.00 84 997.6
20260508030745 15 275 4.8 6.4 0.00 0.00 0.00 85 997.5
20260508030242 15 257 4.8 9.7 0.00 2.13 2.13 84 997.5
20260508025739 15 73 3.2 6.4 0.00 2.13 2.13 84 997.4
20260508025236 15 264 4.8 9.7 0.00 2.13 2.13 83 997.3
20260508024732 15 331 1.6 3.2 0.00 2.13 2.13 83 997.2
20260508024229 15 202 1.6 1.6 0.00 2.13 2.13 83 997.1
20260508023726 15 290 6.4 11.3 0.00 2.13 2.13 82 997.2
20260508023224 15 292 11.3 14.5 0.00 2.13 2.13 82 997.3
20260508022719 15 319 14.5 22.5 0.00 2.13 2.13 82 997.6
20260508022216 15 322 3.2 4.8 0.00 2.13 2.13 82 997.9
20260508021713 15 322 8.0 12.9 0.00 2.13 2.13 81 997.5
20260508021208 15 162 1.6 1.6 0.00 2.13 2.13 81 997.7
20260508020706 15 315 6.4 9.7 0.00 2.13 2.13 81 998.0
20260508020203 15 277 8.0 11.3 0.00 2.13 2.13 81 998.1
20260508015700 15 239 3.2 4.8 0.00 2.13 2.13 81 998.3
20260508015157 15 315 4.8 4.8 0.00 2.13 2.13 80 998.4
20260508014653 15 275 4.8 9.7 0.00 2.13 2.13 81 998.1
20260508014149 15 283 6.4 9.7 0.00 2.13 2.13 80 998.2
20260508013646 15 179 1.6 4.8 0.00 2.13 2.13 81 998.2
20260508013142 15 295 8.0 11.3 0.00 2.13 2.13 81 998.1
20260508012640 15 308 4.8 6.4 0.00 2.13 2.13 81 998.3
20260508012137 15 255 4.8 6.4 0.00 2.13 2.13 82 998.5
20260508011636 15 351 3.2 6.4 0.00 2.13 2.13 81 998.4
20260508011133 15 309 8.0 12.9 0.00 2.13 2.13 81 998.7
20260508010629 15 288 4.8 4.8 0.00 2.13 2.13 81 998.8
20260508010127 15 323 8.0 9.7 0.00 2.13 2.13 81 999.0
20260508005624 15 288 6.4 9.7 0.00 2.13 2.13 80 999.1
20260508005120 15 296 6.4 9.7 0.00 2.13 2.13 80 999.3
20260508004616 15 329 8.0 12.9 0.00 2.13 2.13 80 999.3
20260508004113 15 0 8.0 14.5 0.00 2.13 2.13 82 999.0
20260508003609 15 316 9.7 12.9 0.00 2.13 2.13 82 999.2
20260508003107 15 271 6.4 9.7 0.00 2.13 2.13 83 999.2
20260508002603 16 243 6.4 11.3 0.00 2.13 2.13 83 999.1
20260508002101 16 259 6.4 6.4 0.00 2.13 2.13 83 999.0
20260508001556 16 334 17.7 24.1 0.00 2.13 2.13 83 999.2
20260508001053 16 289 3.2 3.2 0.00 2.13 2.13 82 999.7
20260508000549 16 356 11.3 12.9 0.00 2.13 2.13 82 999.6
20260508000046 16 314 9.7 11.3 0.00 2.13 2.13 81 999.8
20260507235543 16 234 6.4 6.4 0.00 2.13 2.13 82 999.8
20260507235040 16 222 9.7 16.1 0.00 2.13 2.13 83 999.9
20260507234536 16 339 14.5 16.1 0.00 2.13 2.13 83 999.9
20260507234033 16 323 14.5 20.9 0.00 2.13 2.13 83 1000.0
20260507233530 16 309 9.7 12.9 0.00 2.13 2.13 83 1000.2
20260507233029 16 5 16.1 22.5 0.00 2.13 2.13 84 1000.2
20260507232524 16 276 4.8 6.4 0.00 2.13 2.13 84 1000.3
20260507232022 16 191 3.2 4.8 0.00 2.13 2.13 85 1000.4
20260507231518 16 308 9.7 14.5 0.00 2.13 2.13 85 1000.4
20260507231016 16 34 6.4 9.7 0.00 2.13 2.13 85 1000.5
20260507230512 16 239 8.0 11.3 0.00 2.13 2.13 85 1000.5
20260507230009 16 316 16.1 22.5 0.00 2.13 2.13 85 1000.9
20260507225504 16 351 3.2 4.8 0.00 2.13 2.13 86 1000.8
20260507225000 16 28 4.8 4.8 0.00 2.13 2.13 86 1000.7
20260507224456 16 327 4.8 6.4 0.00 2.13 2.13 86 1000.7
20260507223953 16 334 6.4 6.4 0.00 2.13 2.13 87 1000.8
20260507223449 16 271 8.0 9.7 0.00 2.13 2.13 87 1000.6
20260507222946 16 61 9.7 14.5 0.00 2.13 2.13 88 1000.6
20260507222443 16 175 6.4 11.3 0.00 2.13 2.13 88 1000.1
20260507221939 16 322 12.9 14.5 0.00 2.13 2.13 87 1000.0
20260507221436 16 78 1.6 3.2 0.00 2.13 2.13 87 999.7
20260507220932 16 307 6.4 9.7 0.00 2.13 2.13 87 999.4
20260507220430 16 227 4.8 4.8 0.00 2.13 2.13 87 999.4
20260507215927 16 191 3.2 3.2 0.00 2.13 2.13 87 999.5
20260507215423 16 192 3.2 4.8 0.00 2.13 2.13 88 999.3
20260507214921 16 21 1.6 3.2 0.00 2.13 2.13 89 999.2
20260507214418 16 273 9.7 11.3 0.00 2.13 2.13 88 999.3
20260507213913 16 259 3.2 4.8 0.00 2.13 2.13 88 999.4
20260507213410 16 236 1.6 1.6 0.00 2.13 2.13 89 998.8
20260507212907 16 325 3.2 4.8 0.00 2.13 2.13 89 998.3
20260507212403 16 327 4.8 4.8 0.00 2.13 2.13 89 998.5
20260507211900 16 326 4.8 6.4 0.00 2.13 2.13 89 998.7
20260507211356 17 156 6.4 12.9 0.00 2.13 2.13 89 998.8
20260507210853 17 253 8.0 11.3 0.00 2.13 2.13 91 999.1
20260507210350 17 317 3.2 3.2 0.00 2.13 2.13 91 999.1
20260507205847 17 134 1.6 3.2 0.00 2.13 2.13 91 999.3
20260507205344 17 259 3.2 4.8 0.00 2.13 2.13 90 999.4
20260507204840 17 308 9.7 12.9 0.00 2.13 2.13 90 999.4
20260507204337 17 322 8.0 9.7 0.00 2.13 2.13 90 999.4
20260507203835 17 331 8.0 11.3 0.00 2.13 2.13 90 999.1
20260507203333 17 275 3.2 3.2 0.00 2.13 2.13 90 999.3
20260507202828 17 309 11.3 14.5 0.00 2.13 2.13 90 999.4
20260507202325 17 318 3.2 6.4 0.00 2.13 2.13 90 999.2
20260507201821 17 234 3.2 3.2 0.00 2.13 2.13 90 999.3
20260507201317 17 329 6.4 9.7 0.00 2.13 2.13 89 999.4
20260507200813 17 195 3.2 3.2 0.00 2.13 2.13 89 999.3
20260507200309 17 303 1.6 3.2 0.00 2.13 2.13 89 999.6
20260507195805 17 358 3.2 4.8 0.00 2.13 2.13 89 999.6
20260507195305 17 190 1.6 3.2 0.00 2.13 2.13 89 999.8
20260507194800 17 305 1.6 3.2 0.00 2.13 2.13 89 999.7
20260507194256 17 342 3.2 4.8 0.00 2.13 2.13 88 999.6
20260507193753 17 295 6.4 9.7 0.00 2.13 2.13 88 1000.0
20260507193249 17 150 3.2 4.8 0.00 2.13 2.13 89 999.8
20260507192745 17 278 4.8 6.4 0.00 2.13 2.13 88 999.9
20260507192242 17 308 4.8 6.4 0.00 2.13 2.13 88 999.7
20260507191738 17 130 0.0 0.0 0.00 2.13 2.13 89 999.3
20260507191235 17 279 1.6 4.8 0.00 2.13 2.13 89 999.6
20260507190732 17 247 8.0 11.3 0.00 2.13 2.13 89 1000.1
20260507190231 17 30 4.8 6.4 0.00 2.13 2.13 89 1000.0
20260507185729 17 159 1.6 3.2 0.00 2.13 2.13 90 1000.0
20260507185225 17 356 4.8 4.8 0.00 2.13 2.13 89 1000.0
20260507184723 18 283 3.2 3.2 0.00 2.13 2.13 89 1000.4
20260507184221 18 311 1.6 3.2 0.00 2.13 2.13 90 1000.0
20260507183717 18 349 1.6 3.2 0.00 2.13 2.13 90 999.8
20260507183214 18 121 1.6 1.6 0.00 2.13 2.13 90 999.8
20260507182711 18 173 4.8 6.4 0.00 2.13 2.13 91 999.4
20260507182206 18 330 6.4 11.3 0.00 2.13 2.13 91 999.2
20260507181703 18 293 3.2 4.8 0.00 2.13 2.13 91 998.9
20260507181200 18 233 1.6 3.2 0.00 2.13 2.13 91 998.4
20260507180656 18 143 1.6 3.2 0.00 2.13 2.13 90 998.0
20260507180154 18 86 1.6 3.2 0.00 2.13 2.13 90 997.9
20260507175649 18 144 0.0 0.0 0.00 2.13 2.13 90 998.3
20260507175146 18 63 6.4 11.3 0.00 2.13 2.13 91 998.6
20260507174643 18 137 1.6 1.6 0.00 2.13 2.13 91 998.9
20260507174142 18 135 0.0 0.0 0.00 2.13 2.13 91 998.7
20260507173639 18 94 1.6 3.2 0.00 2.13 2.13 92 998.3
20260507173136 18 334 3.2 3.2 0.00 2.13 2.13 92 998.5
20260507172632 17 79 1.6 3.2 0.00 2.13 2.13 92 998.3
20260507172130 17 56 6.4 11.3 0.00 2.13 2.13 92 998.2
20260507171624 17 65 0.0 1.6 0.00 2.13 2.13 92 998.2
20260507171121 17 65 4.8 4.8 0.00 2.13 2.13 92 998.9
20260507170618 17 359 8.0 11.3 0.00 2.13 2.13 92 999.0
20260507170115 17 357 4.8 6.4 0.00 2.13 2.13 93 999.8
20260507165611 17 294 4.8 4.8 0.00 2.13 2.13 93 999.6
20260507165108 17 34 3.2 6.4 0.00 2.13 2.13 93 999.4
20260507164603 17 134 0.0 1.6 0.00 2.13 2.13 93 999.4
20260507164100 17 268 1.6 3.2 0.00 2.13 2.13 93 999.7
20260507163558 17 322 6.4 9.7 0.00 2.13 2.13 94 999.9
20260507163056 17 74 3.2 4.8 0.00 2.13 2.13 94 999.9
20260507162555 17 103 3.2 3.2 0.00 2.13 2.13 95 1000.0
20260507162053 17 308 8.0 9.7 0.00 2.13 2.13 94 999.9
20260507161549 17 133 0.0 0.0 0.00 2.13 2.13 95 999.7
20260507161046 17 306 4.8 4.8 0.00 2.13 2.13 95 1000.0
20260507160542 17 144 1.6 1.6 0.00 2.13 2.13 95 1000.4
20260507160038 17 108 1.6 3.2 0.00 2.13 2.13 94 1000.7
20260507155534 17 256 3.2 3.2 0.00 2.13 2.13 94 1000.8
20260507155031 17 135 0.0 0.0 0.18 2.13 2.13 94 1001.0
20260507154528 17 355 8.0 16.1 0.18 2.13 2.13 95 1001.2
20260507154025 17 317 8.0 9.7 0.00 2.11 2.11 95 1001.1
20260507153522 17 137 0.0 1.6 0.18 2.11 2.11 95 1001.1
20260507153018 17 192 1.6 1.6 0.18 2.11 2.11 95 1001.0
20260507152514 17 141 3.2 4.8 0.00 2.08 2.08 95 1001.1
20260507152011 17 140 0.0 1.6 0.00 2.08 2.08 96 1001.2
20260507151507 18 271 1.6 1.6 0.00 2.08 2.08 96 1001.6
20260507151004 18 244 3.2 3.2 0.00 2.08 2.08 96 1001.9
20260507150501 17 137 1.6 3.2 0.00 2.08 2.08 96 1002.0
20260507145957 17 106 1.6 1.6 0.00 2.08 2.08 96 1001.7
20260507145452 17 133 0.0 1.6 0.00 2.08 2.08 96 1001.6
20260507144950 17 106 1.6 3.2 0.00 2.08 2.08 96 1001.6
20260507144447 17 102 1.6 3.2 0.00 2.08 2.08 96 1001.2
20260507143944 17 112 1.6 1.6 0.00 2.08 2.08 96 1001.5
20260507143441 17 12 4.8 6.4 0.00 2.08 2.08 96 1001.6
20260507142938 17 66 0.0 1.6 0.00 2.08 2.08 97 1001.5
20260507142433 17 148 0.0 0.0 0.00 2.08 2.08 97 1001.1
20260507141931 17 130 0.0 0.0 0.00 2.08 2.08 96 1001.3
20260507141427 17 185 1.6 1.6 0.13 2.08 2.08 96 1001.6
20260507140924 17 315 3.2 6.4 0.13 2.08 2.08 96 1001.3
20260507140420 17 296 12.9 14.5 0.18 2.06 2.06 96 1001.1
20260507135918 17 149 0.0 0.0 0.30 2.06 2.06 96 1000.3
20260507135414 17 138 3.2 6.4 0.43 2.03 2.03 96 1000.8
20260507134912 17 171 1.6 1.6 0.48 2.01 2.01 96 1001.4
20260507134408 17 313 4.8 4.8 0.43 1.98 1.98 95 1001.9
20260507133904 18 344 3.2 9.7 0.30 1.93 1.93 95 1002.4
20260507133400 18 322 11.3 12.9 0.18 1.91 1.91 94 1002.4
20260507132859 18 290 6.4 9.7 0.00 1.88 1.88 93 1001.9
20260507132355 18 6 3.2 3.2 0.00 1.88 1.88 93 1002.0
20260507131852 18 0 4.8 6.4 0.00 1.88 1.88 94 1001.1
20260507131349 18 29 1.6 1.6 0.00 1.88 1.88 94 1000.2
20260507130846 18 143 0.0 0.0 0.00 1.88 1.88 94 1000.8
20260507130343 18 144 3.2 4.8 0.00 1.88 1.88 93 1001.2
20260507125842 18 202 4.8 6.4 0.00 1.88 1.88 93 1002.0
20260507125339 18 317 6.4 6.4 0.00 1.88 1.88 93 1002.3
20260507124836 18 0 4.8 4.8 0.00 1.88 1.88 93 1002.7
20260507124332 18 11 6.4 9.7 0.00 1.88 1.88 92 1002.9
20260507123831 18 41 1.6 3.2 0.00 1.88 1.88 93 1001.0
20260507123328 18 204 3.2 3.2 0.00 1.88 1.88 92 1001.6
20260507122824 18 150 1.6 1.6 0.00 1.88 1.88 92 1001.2
20260507122319 18 216 9.7 12.9 0.00 1.88 1.88 93 1000.7
20260507121816 17 311 3.2 9.7 0.00 1.88 1.88 94 999.9
20260507121312 17 164 1.6 3.2 0.00 1.88 1.88 94 999.1
20260507120808 17 266 3.2 4.8 0.00 1.88 1.88 94 999.3
20260507120305 17 332 8.0 11.3 0.00 1.88 1.88 94 999.4